sat.trackr.live / text

‹ back to catalog

STARLINK-5218

NORAD 55636 · 2023-021J

PAYLOAD ACTIVE UNKNOWN

§ Identity

Operator
Country
US
Launch date
2023-02-17
Launch site
AFWTR
Launch vehicle
Mass (kg)
RCS (m²)

Purposes: comms

External: N2YO · Heavens-Above · Gunter

§ Orbital elements

Epoch: 2026-09-20T22:00:03.000096Z

Period
95.84 min
Inclination
70.0003°
Eccentricity
0.0003760
Mean motion
15.02509594 rev/d
Perigee alt
556.6 km
Apogee alt
561.8 km
Semi-major
6,937.3 km
B*
6.2483e-3
RAAN
72.1324°
Arg perigee
323.8039°
Mean anomaly
34.7928°
Rev number
576

§ Raw data

STARLINK-52181 55636U 23021J   26263.91670139  .00084063  00000+0  62483-2 0  99932 55636  70.0003  72.1324 0003760 323.8039  34.7928 15.02509594  5761

JSON: /api/v1/satellites/55636 · /tle

For live sub-satellite position, see the globe view (requires WebGL).

§ Visibility from observer

Set your observer location to see the next 7 days of passes ≥ 10°. The values pass through the URL so the page stays shareable.

No JS? Fill the form by hand. The geolocation button needs JavaScript.